TimePST,TemperatureF,Dew PointF,Humidity,Sea Level PressureIn,VisibilityMPH,Wind Direction,Wind SpeedMPH,Gust SpeedMPH,PrecipitationIn,Events,Conditions,WindDirDegrees,DateUTC
1:56 AM,28.9,27.0,92,29.94,5.0,West,9.2,20.7,0.01,,Overcast,260,2013-02-06 09:56:00
2:08 AM,28.4,26.6,93,29.87,1.0,West,8.1,20.7,0.00,Snow,Light Snow,280,2013-02-06 10:08:00
2:29 AM,30.2,28.4,93,29.88,0.5,Variable,4.6,-,0.03,Fog-Snow,Snow,0,2013-02-06 10:29:00
2:38 AM,30.2,28.4,93,29.88,1.0,Variable,6.9,-,0.03,Snow,Light Snow,0,2013-02-06 10:38:00
2:53 AM,30.2,28.4,93,29.88,0.8,West,8.1,-,0.04,Snow,Light Snow,270,2013-02-06 10:53:00
3:56 AM,28.9,27.0,92,29.97,0.8,Variable,5.8,-,0.05,Snow,Light Snow,0,2013-02-06 11:56:00
4:35 AM,28.4,28.4,100,29.90,0.8,Variable,3.5,-,0.03,Snow,Light Snow,0,2013-02-06 12:35:00
5:03 AM,28.4,28.4,100,29.91,0.5,Variable,4.6,-,0.00,Fog-Snow,Light Snow,0,2013-02-06 13:03:00
6:56 AM,28.9,27.0,92,30.01,0.8,Variable,5.8,-,0.03,Snow,Light Snow,0,2013-02-06 14:56:00
7:18 AM,28.4,26.6,93,29.94,0.8,West,9.2,18.4,0.02,Snow,Light Snow,280,2013-02-06 15:18:00
8:12 AM,28.4,26.6,93,29.94,2.0,West,9.2,17.3,N/A,,Overcast,280,2013-02-06 16:12:00
8:56 AM,28.9,27.0,92,30.02,10.0,West,5.8,17.3,N/A,,Mostly Cloudy,270,2013-02-06 16:56:00
9:03 AM,28.4,26.6,93,29.94,10.0,Variable,5.8,-,N/A,,Scattered Clouds,0,2013-02-06 17:03:00
9:20 AM,28.4,26.6,93,29.94,0.5,Variable,3.5,-,N/A,Fog,Light Freezing Fog,0,2013-02-06 17:20:00
9:47 AM,28.4,28.4,100,29.95,1.0,Variable,3.5,-,N/A,,Mist,0,2013-02-06 17:47:00
2:56 PM,32.0,28.0,85,29.99,10.0,Calm,Calm,-,N/A,,Overcast,0,2013-02-06 22:56:00
3:56 PM,30.9,28.9,92,29.98,10.0,Variable,4.6,-,N/A,,Overcast,0,2013-02-06 23:56:00
6:28 PM,30.2,28.4,93,29.87,1.0,Variable,5.8,-,0.01,,Overcast,0,2013-02-07 02:28:00
7:56 PM,30.0,28.0,92,29.92,1.2,Variable,5.8,-,N/A,,Overcast,0,2013-02-07 03:56:00
8:07 PM,30.2,28.4,93,29.84,0.8,Variable,5.8,-,N/A,,Mist,0,2013-02-07 04:07:00
10:24 PM,30.2,28.4,93,29.80,1.2,North,-9999.0,-,N/A,,Overcast,0,2013-02-07 06:24:00
10:56 PM,30.0,28.0,92,29.88,6.0,Variable,4.6,-,N/A,,Overcast,0,2013-02-07 06:56:00